Location: Caltech
(34.1382°N, 118.1253°W)
Time: 06:47:28
(UTC-07:00)

Cosmos 2084 - Visible Passes

Search period start: 20 April 2014 00:00
Search period end: 30 April 2014 00:00
Orbit: 578 x 624 km, 62.8° (Epoch: 20 April)

Date Brightness Start Highest point End Pass type
(mag) Time Alt. Az. Time Alt. Az. Time Alt. Az.
20 Apr 6.2 03:55:15 10° N 03:58:37 20° NE 04:01:57 10° E visible
20 Apr 4.0 05:34:18 10° NW 05:38:28 38° WSW 05:42:32 10° S visible
21 Apr 5.1 04:06:09 10° NNW 04:10:19 36° NE 04:14:24 10° ESE visible
21 Apr 4.8 05:46:34 10° WNW 05:49:44 19° WSW 05:52:52 10° SSW visible
21 Apr 5.1 19:47:49 10° SW 19:52:03 42° NW 19:56:20 10° NNE visible
22 Apr 3.7 04:17:23 10° NNW 04:21:52 72° ENE 04:26:16 10° SE visible
22 Apr 6.3 20:00:08 10° WSW 20:03:42 23° NW 20:07:18 10° N visible
23 Apr 6.4 02:50:31 10° N 02:53:14 16° NE 02:55:56 10° E visible
23 Apr 3.5 04:28:54 10° NW 04:33:17 55° WSW 04:37:35 10° SSE visible
23 Apr 6.7 20:13:17 10° WNW 20:15:28 13° NW 20:17:40 10° NNW visible
24 Apr 5.7 03:01:08 10° N 03:03:53 24° NNE 03:03:53 24° NNE visible
25 Apr 6.2 03:12:11 10° NNW 03:12:43 13° NNW 03:12:43 13° NNW visible
